Other Surface Observations
Issued by NWS Charleston, SC

Home | Current Version | Previous Version | Text Only | Print | Product List | Glossary On
Versions: 1 2 3 4 5 6 7 8 9 10 11 12 13 14 15 16 17 18 19 20 21 22 23 24 25 26 27 28 29 30 31 32 33 34 35 36 37 38 39 40 41 42 43 44 45 46 47 48 49 50
486
SXUS52 KCHS 251745
OSOCHS

MARINE OBSERVATIONS
NATIONAL WEATHER SERVICE CHARLESTON SC
200 PM EDT MON SEP 25 2017

...DOWNTOWN CHARLESTON AND HARBOR...

CITY           SKY/WX    TMP DP  RH WIND       PRES   REMARKS
WATERFRONT PRK   N/A     78  70  76 N7        29.76S

...LAKE MOULTRIE...

CITY           SKY/WX    TMP DP  RH WIND       PRES   REMARKS
PINOPOLIS        N/A     75  68  78 NE7       29.86F

...LAKE AND SUPPLEMENTAL COASTAL OBSERVATIONS...

STATION/POSITION TIME  TEMP    WIND        PRES    WAVE   SWELL
                       AIR SEA DIR/SP/G            HT/PER HT/PER/DIR
                 (UTC) (F)     (DEG/KT/KT) (MB)    (FT/S) (FT/S/D)
FORT PULASKI     1718   79 81   40/  6/  8 1013.4
SAPELO ISLAND    1700   84        CALM     1013.0
WINYAH BAY       1645   72     350/  7     1013.0F
LAKE MURRAY      1720   81      10/  4/  7 1013.9
ACE BASIN NERRS  1645   80     350/  2     1013.0S


...C-MAN AND BUOY OBSERVATIONS...

STATION/POSITION TIME  TEMP    WIND        PRES    WAVE   SWELL
                       AIR SEA DIR/SP/G            HT/PER HT/PER/DIR
                 (UTC) (F)     (DEG/KT/KT) (MB)    (FT/S) (FT/S/D)
BUOY 41004       1720   76 81   10/ 19/ 23 1011.4
BUOY 41008       1650   76 80   20/ 10/ 12 1012.8R   5/12   5/120/12
FOLLY BEACH CMAN 1700   77      30/  6/  7 1013.6F
CAPERS NS BUOY   1708   74 80   30/ 12/ 17 1012.4S
FRIPP NS BUOY    1708   77      10/ 10/ 14 1018.9F
5E ST. MARYS GA  1700      81                N/A     6/13   3/110/13


STATION/POSITION TIME  TEMP    WIND        PRES    WAVE   SWELL
                       AIR SEA DIR/SP/G            HT/PER HT/PER/DIR
                 (UTC) (F)     (DEG/KT/KT) (MB)    (FT/S) (FT/S/D)
FRYING PAN BUOY  1720   78 82   10/ 21/ 25 1010.4
BUOY 41025       1650   76 77   30/ 23/ 27 1010.3F  12/14  10/150/14
CAPE LOOKOUT NC  1700   78      30/ 26/ 32 1011.2F
BUOY 41002       1650   81 81  360/ 37/ 47  994.3F  21/10  11/110/13
BUOY 41010       1720          340/ 12/ 14 1010.3
ST AUGUSTINE FL  1700   79 82   10/ 12/ 13 1013.1F

$$




USA.gov is the U.S. government's official web portal to all federal, state and local government web resources and services.